�������l�o���
Date,Time,MP-1(��Sv/h),MP-2(��Sv/h),MP-3(��Sv/h),MP-4(��Sv/h),MP-5(��Sv/h),MP-6(��Sv/h),MP-7(��Sv/h),MP-8(��Sv/h),����,����(m/s),���J
2017/01/03,00:00,1.109,1.841,1.206,2.101,1.446,0.572,1.044,0.966,�k�k��,1.5,��
2017/01/03,00:10,1.110,1.839,1.205,2.102,1.450,0.573,1.044,0.964,���k��,2.0,��
2017/01/03,00:20,1.111,1.841,1.206,2.097,1.447,0.572,1.043,0.965,�k��,2.3,��
2017/01/03,00:30,1.111,1.841,1.207,2.102,1.447,0.573,1.043,0.965,�k��,1.7,��
2017/01/03,00:40,1.109,1.842,1.207,2.099,1.444,0.572,1.042,0.967,�k��,3.1,��
2017/01/03,00:50,1.110,1.840,1.207,2.101,1.448,0.571,1.043,0.966,�k��,5.0,��
2017/01/03,01:00,1.109,1.842,1.205,2.100,1.449,0.573,1.046,0.967,�k��,5.5,��
2017/01/03,01:10,1.109,1.841,1.206,2.106,1.447,0.569,1.042,0.966,���k��,6.2,��
2017/01/03,01:20,1.111,1.837,1.206,2.102,1.446,0.571,1.044,0.966,��,6.0,��
2017/01/03,01:30,1.111,1.843,1.205,2.102,1.446,0.572,1.043,0.964,���k��,4.8,��
2017/01/03,01:40,1.107,1.840,1.205,2.103,1.445,0.571,1.041,0.965,���k��,3.9,��
2017/01/03,01:50,1.108,1.843,1.206,2.103,1.446,0.573,1.042,0.964,���k��,2.9,��
2017/01/03,02:00,1.109,1.840,1.205,2.100,1.445,0.571,1.042,0.964,���k��,4.1,��
2017/01/03,02:10,1.108,1.838,1.205,2.102,1.449,0.571,1.043,0.965,���k��,5.5,��
2017/01/03,02:20,1.110,1.840,1.206,2.103,1.446,0.571,1.041,0.965,���k��,5.2,��
2017/01/03,02:30,1.110,1.839,1.203,2.103,1.447,0.572,1.042,0.965,���k��,5.8,��
2017/01/03,02:40,1.108,1.839,1.205,2.104,1.445,0.570,1.043,0.964,���k��,6.3,��
2017/01/03,02:50,1.108,1.841,1.206,2.102,1.444,0.573,1.042,0.964,���k��,4.8,��
2017/01/03,03:00,1.109,1.837,1.206,2.102,1.447,0.571,1.042,0.964,���k��,4.2,��
2017/01/03,03:10,1.109,1.840,1.204,2.100,1.446,0.571,1.042,0.964,���k��,3.3,��
2017/01/03,03:20,1.109,1.840,1.204,2.099,1.446,0.572,1.041,0.965,���k��,3.5,��
2017/01/03,03:30,1.105,1.840,1.205,2.104,1.448,0.570,1.041,0.964,�k��,5.4,��
2017/01/03,03:40,1.108,1.838,1.203,2.102,1.446,0.571,1.041,0.964,�k��,4.3,��
2017/01/03,03:50,1.108,1.840,1.204,2.101,1.444,0.570,1.041,0.965,���k��,3.8,��
2017/01/03,04:00,1.110,1.839,1.203,2.100,1.443,0.571,1.042,0.965,���k��,3.5,��
2017/01/03,04:10,1.107,1.841,1.205,2.101,1.446,0.572,1.040,0.965,���k��,4.4,��
2017/01/03,04:20,1.108,1.837,1.203,2.100,1.448,0.570,1.041,0.964,���k��,4.5,��
2017/01/03,04:30,1.110,1.839,1.206,2.100,1.446,0.571,1.041,0.964,���k��,3.0,��
2017/01/03,04:40,1.108,1.839,1.203,2.097,1.445,0.570,1.039,0.965,���k��,2.5,��
2017/01/03,04:50,1.107,1.839,1.202,2.098,1.445,0.572,1.041,0.965,��,0.6,��
2017/01/03,05:00,1.108,1.837,1.203,2.098,1.444,0.571,1.042,0.964,�k,1.7,��
2017/01/03,05:10,1.105,1.840,1.203,2.097,1.444,0.572,1.042,0.964,�k��,4.1,��
2017/01/03,05:20,1.107,1.839,1.204,2.103,1.443,0.571,1.042,0.964,���k��,4.6,��
2017/01/03,05:30,1.107,1.840,1.203,2.099,1.443,0.570,1.042,0.964,���k��,6.3,��
2017/01/03,05:40,1.108,1.841,1.205,2.104,1.447,0.570,1.042,0.964,���k��,8.4,��
2017/01/03,05:50,1.107,1.837,1.207,2.102,1.445,0.569,1.042,0.964,�k��,10.2,��
2017/01/03,06:00,1.108,1.840,1.207,2.100,1.447,0.573,1.041,0.966,���k��,11.7,��
2017/01/03,06:10,1.107,1.839,1.205,2.100,1.446,0.569,1.042,0.964,���k��,10.6,��
2017/01/03,06:20,1.107,1.842,1.205,2.101,1.445,0.573,1.042,0.965,�k��,9.3,��
2017/01/03,06:30,1.107,1.837,1.206,2.100,1.446,0.572,1.043,0.963,���k��,8.7,��
2017/01/03,06:40,1.108,1.838,1.207,2.101,1.446,0.572,1.042,0.964,���k��,10.4,��
2017/01/03,06:50,1.108,1.842,1.205,2.104,1.444,0.571,1.041,0.965,���k��,9.8,��
2017/01/03,07:00,1.108,1.843,1.205,2.101,1.445,0.573,1.042,0.966,�k��,9.6,��
2017/01/03,07:10,1.107,1.841,1.206,2.103,1.443,0.571,1.042,0.965,�k��,8.3,��
2017/01/03,07:20,1.108,1.838,1.207,2.104,1.446,0.570,1.043,0.964,�k��,8.2,��
2017/01/03,07:30,1.108,1.839,1.207,2.104,1.445,0.572,1.040,0.963,�k�k��,7.6,��
2017/01/03,07:40,1.107,1.842,1.207,2.105,1.442,0.570,1.041,0.964,�k�k��,6.9,��
2017/01/03,07:50,1.106,1.839,1.207,2.106,1.447,0.570,1.041,0.965,�k�k��,6.2,��
2017/01/03,08:00,1.106,1.840,1.204,2.102,1.446,0.570,1.041,0.965,�k�k��,6.7,��
2017/01/03,08:10,1.107,1.840,1.207,2.105,1.445,0.570,1.041,0.965,�k�k��,8.1,��
2017/01/03,08:20,1.108,1.841,1.205,2.102,1.447,0.571,1.044,0.966,�k�k��,8.6,��
2017/01/03,08:30,1.109,1.843,1.205,2.104,1.448,0.570,1.041,0.965,�k�k��,8.3,��
2017/01/03,08:40,1.109,1.845,1.205,2.104,1.447,0.570,1.042,0.966,�k�k��,9.4,��
2017/01/03,08:50,1.109,1.845,1.206,2.106,1.447,0.571,1.045,0.965,�k�k��,8.4,��
2017/01/03,09:00,1.109,1.843,1.207,2.102,1.449,0.572,1.042,0.964,�k�k��,8.7,��
2017/01/03,09:10,1.109,1.843,1.207,2.104,1.447,0.571,1.044,0.966,�k,6.8,��
2017/01/03,09:20,1.111,1.843,1.207,2.107,1.448,0.571,1.043,0.964,�k,6.1,��
2017/01/03,09:30,1.111,1.846,1.208,2.105,1.447,0.571,1.042,0.966,�k,5.8,��
2017/01/03,09:40,1.111,1.845,1.205,2.110,1.445,0.570,1.041,0.967,�k�k��,5.0,��
2017/01/03,09:50,1.111,1.843,1.205,2.107,1.446,0.570,1.041,0.965,�k�k��,4.7,��
2017/01/03,10:00,1.112,1.842,1.207,2.105,1.448,0.573,1.044,0.967,�k�k��,5.8,��
2017/01/03,10:10,1.112,1.844,1.210,2.105,1.447,0.573,1.043,0.965,�k�k��,7.2,��
2017/01/03,10:20,1.111,1.843,1.210,2.103,1.448,0.574,1.043,0.967,�k�k��,6.2,��
2017/01/03,10:30,1.112,1.844,1.208,2.105,1.447,0.571,1.041,0.964,�k�k��,5.3,��
2017/01/03,10:40,1.111,1.847,1.207,2.107,1.449,0.573,1.039,0.966,�k�k��,6.8,��
2017/01/03,10:50,1.113,1.846,1.209,2.107,1.449,0.571,1.042,0.966,�k�k��,6.3,��
2017/01/03,11:00,1.113,1.848,1.209,2.108,1.450,0.571,1.043,0.967,�k�k��,7.8,��
2017/01/03,11:10,1.112,1.844,1.210,2.107,1.447,0.572,1.042,0.965,�k,5.8,��
2017/01/03,11:20,1.113,1.848,1.211,2.107,1.449,0.572,1.041,0.966,�k,5.9,��
2017/01/03,11:30,1.114,1.847,1.211,2.107,1.452,0.574,1.041,0.966,�k�k��,6.0,��
2017/01/03,11:40,1.113,1.848,1.208,2.106,1.449,0.572,1.041,0.967,�k�k��,6.1,��
2017/01/03,11:50,1.111,1.849,1.206,2.108,1.452,0.572,1.041,0.965,�k�k��,5.2,�L
2017/01/03,12:00,1.109,1.848,1.210,2.108,1.450,0.573,1.041,0.968,�k��,5.5,��
2017/01/03,12:10,1.114,1.848,1.207,2.106,1.453,0.572,1.041,0.968,���k��,6.9,��
2017/01/03,12:20,1.111,1.847,1.210,2.107,1.451,0.573,1.043,0.966,���k��,8.3,�L
2017/01/03,12:30,1.114,1.847,1.212,2.108,1.452,0.573,1.039,0.966,���k��,7.8,��
2017/01/03,12:40,1.114,1.848,1.208,2.109,1.452,0.574,1.040,0.966,���k��,6.3,��
2017/01/03,12:50,1.115,1.848,1.209,2.109,1.454,0.573,1.041,0.966,���k��,6.9,��
2017/01/03,13:00,1.113,1.850,1.210,2.110,1.452,0.574,1.043,0.966,���k��,6.3,��
2017/01/03,13:10,1.115,1.845,1.211,2.109,1.454,0.573,1.045,0.967,���k��,5.2,��
2017/01/03,13:20,1.117,1.849,1.211,2.113,1.454,0.572,1.041,0.967,�k�k��,7.6,��
2017/01/03,13:30,1.114,1.849,1.212,2.110,1.453,0.572,1.041,0.968,�k��,5.8,��
2017/01/03,13:40,1.114,1.846,1.210,2.109,1.455,0.573,1.042,0.969,�k��,6.0,��
2017/01/03,13:50,1.117,1.849,1.208,2.113,1.453,0.572,1.041,0.966,�k��,5.9,��
2017/01/03,14:00,1.113,1.847,1.212,2.111,1.454,0.574,1.040,0.967,���k��,6.7,��
2017/01/03,14:10,1.115,1.845,1.209,2.114,1.454,0.573,1.042,0.966,���k��,7.4,��
2017/01/03,14:20,1.115,1.845,1.212,2.109,1.451,0.572,1.042,0.969,�k��,7.8,��
2017/01/03,14:30,1.115,1.846,1.212,2.109,1.454,0.572,1.043,0.968,�k��,6.7,��
2017/01/03,14:40,1.115,1.846,1.212,2.108,1.454,0.573,1.041,0.968,�k��,6.7,��
2017/01/03,14:50,1.114,1.848,1.208,2.111,1.450,0.572,1.041,0.968,�k�k��,9.9,��
2017/01/03,15:00,1.112,1.849,1.213,2.111,1.456,0.572,1.041,0.966,�k�k��,9.7,��
2017/01/03,15:10,1.110,1.851,1.210,2.109,1.449,0.572,1.042,0.967,�k�k��,7.5,��
2017/01/03,15:20,1.112,1.846,1.210,2.109,1.448,0.571,1.042,0.966,�k�k��,7.9,��
2017/01/03,15:30,1.111,1.850,1.208,2.109,1.453,0.572,1.041,0.966,�k�k��,6.6,��
2017/01/03,15:40,1.113,1.849,1.208,2.108,1.454,0.573,1.041,0.966,�k�k��,5.6,��
2017/01/03,15:50,1.114,1.850,1.209,2.108,1.452,0.572,1.041,0.966,�k��,5.1,��
2017/01/03,16:00,1.112,1.845,1.208,2.110,1.452,0.572,1.041,0.964,�k��,5.6,��
2017/01/03,16:10,1.110,1.847,1.210,2.108,1.452,0.572,1.042,0.966,���k��,5.7,��
2017/01/03,16:20,1.112,1.848,1.209,2.107,1.451,0.573,1.042,0.966,���k��,4.5,��
2017/01/03,16:30,1.109,1.846,1.209,2.107,1.448,0.571,1.044,0.965,���k��,5.7,��
2017/01/03,16:40,1.109,1.843,1.209,2.108,1.451,0.571,1.042,0.965,��,3.2,��
2017/01/03,16:50,1.111,1.847,1.210,2.106,1.450,0.572,1.041,0.964,��,3.5,��
2017/01/03,17:00,1.108,1.847,1.211,2.108,1.448,0.571,1.041,0.966,���k��,4.1,��
2017/01/03,17:10,1.111,1.848,1.207,2.107,1.450,0.571,1.041,0.964,���k��,3.8,��
2017/01/03,17:20,1.110,1.843,1.207,2.106,1.451,0.571,1.040,0.965,��,3.9,��
2017/01/03,17:30,1.109,1.845,1.208,2.105,1.451,0.570,1.040,0.965,��,4.7,��
2017/01/03,17:40,1.110,1.844,1.207,2.108,1.452,0.572,1.040,0.965,��,5.2,��
2017/01/03,17:50,1.111,1.843,1.206,2.105,1.450,0.571,1.040,0.962,��,5.3,��
2017/01/03,18:00,1.110,1.844,1.206,2.105,1.448,0.571,1.041,0.965,��,4.1,��
2017/01/03,18:10,1.110,1.846,1.207,2.103,1.448,0.569,1.040,0.965,��,3.7,��
2017/01/03,18:20,1.109,1.847,1.205,2.105,1.450,0.568,1.039,0.964,���k��,4.3,��
2017/01/03,18:30,1.109,1.844,1.208,2.104,1.446,0.571,1.040,0.963,���k��,3.8,��
2017/01/03,18:40,1.106,1.845,1.205,2.102,1.448,0.571,1.036,0.964,���k��,3.9,��
2017/01/03,18:50,1.109,1.845,1.204,2.103,1.446,0.570,1.040,0.964,�k��,3.7,��
2017/01/03,19:00,1.108,1.844,1.204,2.104,1.447,0.569,1.040,0.964,�k��,3.3,��
2017/01/03,19:10,1.107,1.840,1.203,2.107,1.449,0.569,1.039,0.962,���k��,3.4,��
2017/01/03,19:20,1.106,1.840,1.206,2.103,1.450,0.571,1.039,0.965,�k��,4.0,��
2017/01/03,19:30,1.106,1.843,1.205,2.101,1.450,0.570,1.040,0.963,���k��,4.0,��
2017/01/03,19:40,1.105,1.843,1.203,2.105,1.449,0.570,1.040,0.962,���k��,3.9,��
2017/01/03,19:50,1.105,1.841,1.204,2.105,1.449,0.569,1.040,0.965,���k��,3.9,��
2017/01/03,20:00,1.106,1.841,1.203,2.102,1.447,0.568,1.037,0.962,���k��,5.1,��
2017/01/03,20:10,1.107,1.843,1.205,2.105,1.448,0.569,1.040,0.963,���k��,5.0,��
2017/01/03,20:20,1.107,1.842,1.205,2.106,1.449,0.569,1.040,0.966,���k��,4.0,��
2017/01/03,20:30,1.106,1.843,1.202,2.102,1.448,0.568,1.040,0.964,���k��,3.7,��
2017/01/03,20:40,1.105,1.844,1.203,2.102,1.450,0.569,1.039,0.962,��,3.8,��
2017/01/03,20:50,1.104,1.842,1.205,2.104,1.448,0.569,1.039,0.963,��,3.7,��
2017/01/03,21:00,1.105,1.842,1.205,2.102,1.445,0.569,1.038,0.961,��,4.6,��
2017/01/03,21:10,1.104,1.843,1.204,2.102,1.447,0.569,1.038,0.962,��,5.7,��
2017/01/03,21:20,1.106,1.841,1.204,2.100,1.446,0.569,1.037,0.963,��,4.6,��
2017/01/03,21:30,1.106,1.842,1.205,2.104,1.447,0.568,1.039,0.964,��,3.7,��
2017/01/03,21:40,1.103,1.845,1.203,2.103,1.447,0.569,1.038,0.963,��,2.5,��
2017/01/03,21:50,1.102,1.841,1.204,2.100,1.450,0.568,1.039,0.962,��,1.1,��
2017/01/03,22:00,1.103,1.841,1.203,2.102,1.443,0.569,1.039,0.964,�k,2.3,��
2017/01/03,22:10,1.106,1.842,1.201,2.101,1.448,0.569,1.038,0.965,�k��,2.6,��
2017/01/03,22:20,1.105,1.844,1.202,2.101,1.446,0.570,1.040,0.962,�k��,4.2,��
2017/01/03,22:30,1.103,1.841,1.205,2.101,1.448,0.571,1.038,0.962,�k��,3.0,��
2017/01/03,22:40,1.103,1.842,1.202,2.102,1.447,0.569,1.038,0.964,���k��,3.1,��
2017/01/03,22:50,1.106,1.841,1.203,2.098,1.445,0.568,1.039,0.964,���k��,3.4,��
2017/01/03,23:00,1.106,1.842,1.202,2.102,1.447,0.571,1.038,0.961,���k��,3.6,��
2017/01/03,23:10,1.106,1.843,1.203,2.101,1.446,0.570,1.038,0.963,���k��,2.9,��
2017/01/03,23:20,1.105,1.840,1.205,2.104,1.444,0.570,1.038,0.963,���k��,2.3,��
2017/01/03,23:30,1.104,1.844,1.201,2.097,1.445,0.568,1.038,0.963,�k��,1.7,��
2017/01/03,23:40,1.106,1.842,1.205,2.101,1.448,0.568,1.039,0.962,���k��,1.7,��
2017/01/03,23:50,1.104,1.841,1.202,2.100,1.445,0.568,1.039,0.963,�k��,1.2,��
